This is the latest recevied weather packets stored in our database for station/object AI5KP-13. If no packets are shown the sender has not sent any weather packets the latest 10 day(s).
| Time | Temp. | Humidity | Pressure | Rain* | Wind** | Luminosity | Snow |
|---|---|---|---|---|---|---|---|
| 1777640918 | 9.44° C | 96% | 1018 hPa | 0 mm | - | 123 W/m² | - |
| 1777640615 | 8.89° C | 96% | 1018 hPa | 0 mm | - | 115 W/m² | - |
| 1777640310 | 8.89° C | 96% | 1017.9 hPa | 0 mm | - | 77 W/m² | - |
| 1777640007 | 8.89° C | 96% | 1018 hPa | 0 mm | - | 103 W/m² | - |
| 1777639704 | 8.33° C | 96% | 1017.8 hPa | 0 mm | - | 97 W/m² | - |
| 1777639402 | 8.33° C | 96% | 1017.9 hPa | 0 mm | - | 77 W/m² | - |
| 1777639097 | 7.78° C | 96% | 1017.8 hPa | 0 mm | - | 64 W/m² | - |
| 1777638795 | 7.78° C | 96% | 1017.9 hPa | 0 mm | - | 48 W/m² | - |
| 1777638489 | 7.78° C | 97% | 1017.9 hPa | 0 mm | - | 48 W/m² | - |
| 1777638187 | 7.22° C | 96% | 1017.6 hPa | 0 mm | - | 58 W/m² | - |
| 1777637881 | 7.22° C | 96% | 1017.6 hPa | 0 mm | - | 50 W/m² | - |
| 1777637578 | 6.67° C | 97% | 1017.6 hPa | 0 mm | - | 45 W/m² | - |
| 1777637276 | 6.67° C | 96% | 1017.6 hPa | 0 mm | - | 43 W/m² | - |
| 1777636973 | 6.67° C | 96% | 1017.7 hPa | 0 mm | - | 29 W/m² | - |
| 1777636668 | 6.11° C | 96% | 1017.7 hPa | 0 mm | - | 26 W/m² | - |
| 1777636365 | 6.11° C | 96% | 1017.9 hPa | 0 mm | - | 20 W/m² | - |
| 1777636065 | 6.11° C | 96% | 1017.8 hPa | 0 mm | - | 14 W/m² | - |
| 1777635761 | 6.11° C | 96% | 1017.7 hPa | 0 mm | - | 14 W/m² | - |
| 1777635458 | 6.11° C | 96% | 1017.7 hPa | 0 mm | - | 8 W/m² | - |
| 1777635155 | 6.11° C | 96% | 1017.8 hPa | 0 mm | - | 7 W/m² | - |
| 1777634851 | 5.56° C | 96% | 1017.5 hPa | 0 mm | - | 4 W/m² | - |
| 1777634549 | 5.56° C | 96% | 1017.6 hPa | 0 mm | - | 2 W/m² | - |
| 1777634245 | 6.11° C | 96% | 1017.5 hPa | 0 mm | - | 1 W/m² | - |
| 1777633941 | 6.11° C | 96% | 1017.4 hPa | 0 mm | - | 0 W/m² | - |
| 1777633640 | 6.11° C | 96% | 1017.4 hPa | 0 mm | - | 0 W/m² | - |
* Rain latest hour (hover to see other rain measurements)
** Current wind speed in m/s (hover to see current wind gust speed)